User: anonymous   Login
Location: Caltech
(34.1382°N, 118.1253°W)
Time: 23:39:27
(UTC-07:00)
Language:

Sapphire - Orbit

View from above orbital plane
View from above orbital plane
View from above satellite
View from above satellite

Ground track
Ground track

The orbit data is extracted from the following two-line orbital elements,

1 26932U 01043D   16209.53454483 -.00000052  00000-0  11754-4 0  9994
2 26932  67.0542 210.6998 0007219 248.1369 111.8965 14.30218395773942
Epoch (UTC): 27 July 2016 12:49:44
Eccentricity: 0.0007219
inclination: 67.0542°
perigee height: 786 km
apogee height: 796 km
right ascension of ascending node: 210.6998°
argument of perigee: 248.1369°
revolutions per day: 14.30218395
mean anomaly at epoch: 111.8965°
orbit number at epoch: 77394

The dashed part of the orbit path shows where the satellite is in the earth's shadow,  

DLR